Wind_Speed
34 37 37 35 34 33 32 33 33 33 34 34 33 32 33 33 31 31 32 32 31 30 30 29 28 26 25 25 24 23 22 22 22 21 22 22 21 20 20 20 21 20
34 36 36 35 35 34 33 32 32 34 34 34 33 31 31 32 31 31 32 33 32 32 31 30 29 28 27 26 25 24 24 23 22 22 22 22 21 21 20 21 21 21
38 39 38 37 35 35 35 34 33 33 32 33 35 33 30 31 31 30 31 32 31 31 31 31 31 30 29 27 26 26 25 24 23 22 22 22 21 21 21 21 21 21
42 42 41 39 36 35 37 37 35 33 32 32 33 33 30 29 30 31 31 32 31 29 30 32 32 31 30 29 27 27 26 25 23 22 22 22 22 22 22 22 23 23
45 44 43 40 37 37 38 39 37 35 34 33 33 33 31 29 31 32 32 32 32 31 31 32 32 32 31 30 29 28 28 26 24 23 23 23 23 23 23 22 21 20
46 45 43 41 39 38 40 40 38 36 36 36 34 33 32 30 31 32 32 33 34 33 32 32 33 33 33 31 30 30 29 28 27 25 25 25 25 24 22 20 18 17
45 44 42 41 39 39 40 40 38 38 38 37 35 33 32 32 32 30 30 33 35 35 34 33 33 34 35 34 32 31 30 30 29 28 27 25 25 23 21 20 20 19
43 44 43 43 41 41 41 40 38 39 40 39 36 34 33 34 34 31 29 32 34 35 36 34 32 32 35 35 34 33 32 31 30 30 28 25 24 24 20 20 22 23
41 43 44 45 44 43 42 41 39 40 41 40 37 35 35 35 35 31 30 32 33 34 34 33 32 31 34 36 36 35 34 32 30 29 27 25 25 24 20 20 23 25
40 41 44 46 46 45 43 42 41 42 43 41 38 37 37 37 34 30 31 34 35 34 33 33 33 32 34 37 37 37 35 33 30 29 27 26 24 23 21 21 23 25
41 41 43 45 46 46 45 43 43 44 44 42 39 39 40 38 34 31 33 36 37 36 34 33 33 34 35 37 38 38 36 33 32 30 29 27 25 23 22 22 24 26
42 43 44 45 46 46 45 44 44 44 43 41 40 41 42 39 33 33 37 39 38 38 36 34 35 37 37 36 38 38 36 34 32 30 29 28 27 25 24 24 26 28
43 45 45 45 45 46 45 44 45 44 42 40 40 41 42 40 35 34 39 41 40 40 38 35 36 38 38 36 37 38 37 35 33 30 29 29 29 28 26 24 26 28
43 44 45 45 44 45 47 46 45 45 42 41 41 41 43 42 38 37 39 41 40 39 37 35 37 38 38 38 38 37 36 35 33 32 31 29 28 27 25 24 26 27
42 42 44 46 46 46 47 47 46 45 43 42 42 42 43 44 41 39 40 40 39 39 37 37 39 41 40 40 39 38 36 35 34 34 33 29 27 27 26 26 26 26
43 43 43 45 47 48 48 47 46 44 43 43 43 42 43 44 43 40 40 41 40 41 40 40 41 43 43 42 40 38 37 36 35 36 34 30 29 29 28 26 25 25
44 43 43 45 47 48 48 48 46 44 44 44 45 44 43 43 44 42 40 40 41 42 42 42 43 43 44 43 41 39 38 37 36 36 35 32 31 31 29 26 25 26
45 44 43 44 46 48 48 48 47 46 46 46 46 46 45 44 45 44 42 41 42 43 43 44 44 44 45 44 41 39 39 38 37 37 36 32 32 33 30 27 26 27
45 46 45 43 44 48 49 49 48 48 47 47 47 47 47 47 47 47 45 42 42 44 44 45 45 45 46 46 43 41 41 40 39 38 36 33 33 34 31 27 26 28
44 45 46 45 45 48 50 49 49 49 48 47 47 47 48 49 49 49 48 45 44 45 45 44 45 47 47 47 46 44 44 44 42 38 35 34 35 35 31 26 25 27
45 45 45 45 46 48 50 51 50 49 48 46 47 48 49 50 51 50 50 48 47 47 46 45 46 48 48 48 46 46 47 47 43 39 36 36 36 34 29 26 26 27
45 46 45 46 47 48 50 51 50 50 49 47 48 49 50 51 51 51 51 50 49 48 47 47 48 49 50 49 47 47 48 47 44 40 38 38 37 34 29 27 26 27
46 46 46 47 48 48 50 51 51 50 50 50 49 49 51 52 51 51 51 51 50 49 47 48 49 50 50 49 48 47 49 48 45 42 40 39 37 34 30 28 28 28
49 47 47 48 49 50 50 51 51 50 50 51 50 51 52 53 52 51 52 52 51 50 48 49 50 51 50 48 48 48 49 49 47 43 41 39 35 34 32 30 29 30
49 49 48 49 51 51 52 52 52 52 52 51 51 51 52 53 52 52 52 52 52 51 48 49 51 52 51 49 47 46 48 49 48 45 42 39 36 35 33 29 27 28
41 43 46 50 52 53 54 54 53 53 52 52 52 52 51 50 51 52 52 52 52 51 49 50 52 53 51 49 46 45 47 49 49 47 44 40 39 38 33 28 26 27
Wind_Direction
215 210 209 212 211 210 212 213 212 211 213 218 219 217 217 219 219 216 215 217 219 217 217 220 221 220 221 225 230 232 233 234 234 232 233 233 235 237 235 233 233 231
220 219 215 213 212 213 215 216 214 210 212 218 220 219 219 220 222 219 215 217 219 218 217 217 220 221 221 225 228 229 229 231 231 230 230 232 234 235 234 231 231 232
217 221 221 219 218 218 214 212 212 211 213 217 220 222 222 222 223 220 216 216 217 217 216 215 217 220 221 224 227 226 227 228 228 229 229 229 229 230 229 228 228 230
214 216 220 222 223 217 210 209 212 213 215 217 219 221 223 222 221 219 216 215 213 212 214 215 215 218 221 223 225 224 225 226 226 224 224 225 225 227 229 232 234 232
215 216 220 224 224 218 210 209 213 216 216 217 217 219 222 220 217 217 216 213 210 210 214 216 214 216 220 221 223 223 222 223 223 219 219 222 225 229 235 238 238 233
216 217 219 223 223 217 212 211 214 217 217 215 215 217 220 220 218 217 216 213 211 210 214 217 215 214 218 220 222 224 222 221 220 217 217 223 229 234 234 232 234 236
216 216 217 220 217 214 213 213 214 217 216 213 213 217 219 218 218 218 215 213 212 211 213 217 216 214 216 219 220 222 223 220 217 216 219 225 230 232 228 221 223 232
218 217 217 217 214 212 213 214 213 214 214 212 211 216 219 217 216 217 213 212 213 212 213 216 217 214 215 217 219 220 221 219 216 216 219 223 224 225 223 215 214 217
218 217 216 215 214 212 213 213 213 213 213 212 211 215 217 216 216 216 212 211 214 213 213 215 215 214 214 216 218 219 220 220 218 217 219 220 222 223 220 216 218 219
217 216 215 214 214 213 212 212 213 212 212 212 211 213 215 216 217 214 209 211 216 215 214 213 212 213 214 215 216 218 220 220 218 216 216 218 220 221 219 218 225 230
217 215 213 213 215 214 213 213 213 213 212 212 212 212 215 216 215 211 209 212 217 217 214 212 212 214 216 215 215 218 220 220 219 216 215 217 221 222 221 220 225 233
217 214 213 214 215 214 214 214 213 212 211 210 211 212 214 215 212 209 210 213 216 216 214 212 212 215 217 217 216 217 219 219 219 218 214 215 220 221 221 222 226 232
218 216 215 215 216 216 215 214 212 210 210 209 210 211 213 214 211 209 212 214 215 216 214 211 213 216 218 219 217 217 219 217 217 218 215 214 218 220 222 227 229 231
218 218 218 217 219 219 217 215 212 210 210 210 209 211 213 214 213 210 213 215 216 217 215 211 212 216 218 219 218 216 216 216 216 217 217 217 218 217 220 227 229 228
217 218 219 219 219 218 216 215 213 211 210 209 209 211 213 214 214 213 213 215 215 216 214 212 212 215 217 218 218 215 214 215 215 216 217 217 215 213 218 226 227 226
216 217 220 220 219 218 215 214 213 212 210 208 208 211 213 213 213 213 213 213 213 213 214 214 214 216 218 219 219 216 215 214 214 215 215 214 211 213 220 227 225 225
217 217 220 222 220 218 216 214 213 211 210 208 207 209 211 212 211 211 210 211 212 212 214 215 215 217 219 221 221 220 217 215 214 213 213 211 210 216 226 232 227 226
216 217 219 221 222 219 217 216 214 210 209 208 207 208 210 211 210 210 209 209 211 213 214 215 215 217 219 220 221 221 220 217 214 213 214 212 211 219 230 235 227 223
218 217 217 218 221 220 217 215 213 210 208 208 208 208 210 210 211 211 211 210 212 214 215 216 216 217 218 220 221 221 221 219 215 216 217 214 213 220 231 235 227 221
220 218 217 217 219 219 217 214 212 210 208 208 208 208 209 210 211 212 211 212 213 214 215 215 216 218 219 220 220 220 220 219 218 219 219 214 214 222 233 240 234 225
223 221 218 216 217 218 216 213 211 209 209 208 208 209 210 211 211 212 211 212 213 216 216 216 217 220 220 219 219 220 221 220 219 220 218 215 218 225 234 243 241 231
223 221 220 217 217 218 217 214 212 210 209 208 207 209 211 211 211 211 211 212 214 215 215 216 218 220 221 220 220 221 222 220 218 219 217 215 219 225 231 240 242 234
219 218 219 219 218 218 218 215 211 210 209 208 207 207 209 210 211 211 211 212 213 214 213 215 218 220 221 220 220 222 222 220 217 217 216 216 220 224 225 232 240 237
223 220 220 220 218 218 219 215 210 208 207 207 208 208 209 211 211 211 211 211 212 212 213 215 218 221 222 220 220 223 223 219 215 214 215 217 219 221 222 228 237 236
228 227 225 222 219 218 220 216 211 207 207 207 209 209 210 211 210 210 210 210 211 212 214 216 218 221 222 220 222 225 223 218 213 213 215 215 216 217 220 225 231 231
228 230 230 226 221 219 219 217 212 208 207 207 208 209 210 209 209 209 209 210 211 211 212 215 219 222 222 221 223 227 224 217 213 213 214 212 212 216 218 220 226 229
Height
1484 1488 1490 1492 1494 1495 1496 1498 1499 1501 1502 1504 1505 1507 1508 1510 1512 1514 1515 1516 1518 1520 1522 1524 1525 1527 1529 1529 1530 1531 1533 1534 1535 1536 1537 1538 1539 1540 1541 1542 1543 1544
1480 1483 1486 1488 1491 1492 1494 1495 1496 1498 1500 1501 1503 1504 1506 1508 1509 1511 1513 1514 1515 1517 1519 1521 1522 1524 1526 1527 1528 1529 1530 1532 1533 1534 1535 1536 1537 1538 1539 1540 1541 1542
1476 1478 1481 1483 1486 1488 1490 1492 1494 1495 1497 1499 1500 1501 1503 1505 1506 1508 1510 1512 1512 1514 1516 1517 1519 1521 1523 1524 1525 1526 1528 1529 1530 1532 1533 1534 1535 1536 1537 1538 1539 1540
1472 1474 1477 1479 1481 1484 1487 1489 1491 1492 1493 1495 1496 1498 1500 1502 1504 1506 1508 1509 1510 1511 1512 1514 1516 1517 1519 1521 1522 1523 1525 1526 1528 1530 1531 1532 1533 1533 1534 1536 1536 1537
1469 1471 1473 1475 1478 1481 1484 1486 1487 1488 1490 1491 1493 1495 1496 1498 1500 1502 1505 1506 1508 1509 1510 1511 1512 1514 1516 1518 1519 1520 1522 1523 1526 1527 1528 1529 1530 1531 1532 1533 1534 1535
1465 1467 1469 1472 1474 1477 1480 1482 1483 1484 1486 1488 1489 1491 1492 1495 1497 1499 1501 1503 1505 1506 1507 1508 1509 1511 1513 1515 1516 1517 1518 1520 1522 1524 1526 1527 1528 1529 1530 1531 1532 1533
1461 1464 1466 1468 1470 1473 1476 1478 1480 1481 1482 1484 1485 1486 1488 1491 1493 1495 1497 1500 1502 1504 1505 1505 1506 1507 1509 1511 1513 1513 1515 1517 1519 1521 1523 1524 1525 1526 1528 1529 1530 1531
1457 1459 1462 1464 1466 1469 1472 1474 1477 1478 1479 1480 1481 1482 1484 1487 1489 1492 1494 1497 1499 1501 1502 1503 1504 1505 1506 1507 1509 1510 1511 1513 1516 1518 1519 1521 1523 1524 1525 1526 1527 1529
1453 1455 1457 1459 1462 1464 1467 1470 1472 1474 1475 1476 1477 1478 1480 1483 1486 1489 1491 1493 1495 1497 1499 1500 1501 1502 1503 1503 1505 1506 1508 1509 1512 1514 1516 1518 1519 1520 1522 1523 1524 1525
1450 1451 1452 1455 1457 1460 1463 1465 1468 1470 1471 1471 1472 1474 1476 1479 1483 1486 1489 1490 1492 1494 1496 1497 1499 1499 1499 1500 1502 1503 1504 1506 1508 1510 1512 1514 1516 1517 1519 1520 1521 1521
1446 1447 1448 1450 1453 1456 1458 1461 1463 1466 1467 1467 1468 1470 1472 1475 1479 1482 1485 1487 1488 1490 1492 1494 1495 1496 1496 1497 1498 1499 1501 1503 1505 1507 1509 1510 1513 1514 1516 1517 1518 1518
1444 1443 1444 1446 1448 1451 1453 1456 1459 1461 1462 1462 1463 1466 1468 1472 1475 1478 1480 1483 1484 1486 1488 1491 1492 1493 1493 1494 1495 1496 1498 1500 1501 1503 1505 1507 1509 1511 1513 1514 1515 1515
1440 1440 1440 1442 1444 1446 1449 1451 1454 1457 1458 1457 1458 1461 1465 1468 1471 1474 1476 1478 1481 1483 1485 1488 1489 1490 1490 1491 1492 1493 1494 1496 1498 1500 1502 1504 1506 1508 1510 1511 1511 1511
1435 1436 1437 1438 1440 1442 1444 1446 1449 1452 1453 1453 1455 1457 1460 1463 1466 1469 1472 1475 1478 1480 1482 1484 1486 1486 1486 1487 1488 1489 1491 1492 1494 1496 1498 1500 1502 1504 1506 1507 1508 1508
1430 1432 1433 1435 1437 1438 1440 1442 1444 1446 1448 1449 1451 1452 1455 1458 1462 1465 1468 1471 1474 1476 1478 1481 1482 1482 1482 1482 1483 1485 1487 1489 1491 1492 1494 1496 1498 1500 1503 1504 1504 1505
1425 1427 1429 1431 1433 1434 1436 1438 1440 1441 1443 1445 1446 1448 1451 1454 1458 1461 1464 1466 1469 1472 1474 1476 1477 1477 1478 1478 1480 1482 1484 1486 1487 1489 1491 1493 1494 1496 1498 1500 1501 1502
1420 1422 1424 1426 1429 1431 1432 1433 1435 1436 1438 1440 1442 1444 1446 1450 1453 1456 1459 1462 1464 1467 1469 1471 1472 1473 1474 1475 1477 1479 1481 1482 1484 1486 1487 1489 1491 1492 1494 1496 1498 1500
1415 1417 1419 1421 1424 1426 1428 1429 1430 1432 1433 1435 1437 1439 1441 1444 1448 1451 1454 1457 1460 1462 1464 1466 1468 1469 1470 1472 1473 1476 1478 1480 1481 1482 1484 1486 1488 1489 1491 1493 1495 1496
1410 1411 1413 1416 1419 1421 1423 1424 1425 1426 1428 1429 1431 1433 1436 1439 1442 1445 1449 1452 1455 1457 1459 1461 1464 1465 1467 1468 1470 1472 1474 1476 1477 1479 1481 1483 1485 1485 1487 1489 1491 1493
1404 1406 1407 1410 1414 1417 1418 1419 1420 1421 1422 1424 1426 1428 1430 1433 1437 1440 1443 1447 1449 1451 1454 1457 1459 1461 1463 1465 1467 1469 1470 1472 1474 1476 1478 1481 1481 1482 1484 1486 1488 1489
1399 1400 1402 1405 1409 1413 1414 1413 1414 1415 1416 1418 1420 1422 1424 1427 1430 1434 1437 1441 1444 1446 1449 1452 1454 1456 1458 1460 1463 1465 1467 1469 1471 1473 1475 1478 1479 1479 1481 1483 1484 1486
1393 1394 1397 1400 1404 1408 1409 1408 1408 1409 1410 1412 1414 1416 1418 1421 1425 1428 1432 1435 1438 1441 1444 1447 1448 1450 1453 1456 1459 1462 1464 1467 1469 1470 1472 1475 1475 1476 1478 1479 1481 1482
1388 1389 1391 1395 1399 1403 1404 1403 1402 1403 1404 1405 1407 1410 1413 1415 1418 1422 1425 1429 1432 1435 1438 1441 1443 1445 1448 1451 1455 1458 1461 1463 1465 1467 1469 1470 1471 1473 1474 1475 1477 1478
1383 1385 1387 1390 1393 1397 1400 1399 1397 1397 1397 1399 1401 1403 1405 1408 1412 1415 1419 1423 1426 1429 1433 1436 1437 1439 1443 1447 1451 1454 1456 1460 1462 1463 1464 1466 1467 1469 1470 1471 1473 1475
1379 1380 1382 1384 1387 1391 1394 1394 1391 1390 1391 1393 1394 1397 1399 1402 1406 1410 1414 1417 1420 1424 1428 1431 1432 1435 1438 1442 1446 1449 1452 1455 1457 1458 1460 1462 1463 1464 1466 1468 1470 1471
1375 1376 1377 1379 1380 1384 1387 1388 1385 1384 1385 1387 1389 1392 1395 1398 1402 1405 1408 1412 1415 1419 1423 1425 1427 1430 1433 1437 1441 1444 1447 1450 1453 1453 1455 1456 1457 1459 1462 1465 1467 1469